[[{"header":{"parameterUnit":"m.s-1","parameterCategory":1,"la1":30.2991,"la2":30.254,"lo1":-89.0895,"lo2":-89.0444,"dy":0.0017,"dx":0.0017,"nx":28,"ny":28,"refTime":"2025-03-02T09:00:00:Z","depth":0,"parameterNumber":2,"parameterNumberName":"U-component_of_WINDS"},"data":[0,0,0,0,0,0,0,0,0,0,0,0,0,0,0,0,0,0,0,0,0,0,0,0,0,0,0,0,0,0,0,0,0,0,0,0,0,0,0,0,0,0,0,0,0,0,0,0,0,0,0,0,0,0,0,0,0,0,-2.8176,-2.8177,0,-2.8222,-2.8222,-2.8223,-2.8139,-2.8136,-2.8134,-2.8131,-2.8179,-2.8183,-2.8187,0,0,0,0,0,0,0,0,0,0,0,0,0,-2.8018,-2.8021,-2.8176,-2.8177,-2.8177,-2.8222,-2.8222,-2.8223,-2.814,-2.8136,-2.8133,-2.813,-2.8178,-2.8183,-2.8187,0,0,0,0,0,0,0,0,0,0,0,0,0,-2.8077,-2.8022,-2.8176,-2.8141,-2.8138,-2.8222,-2.8222,-2.8223,-2.814,-2.8136,-2.8132,-2.8128,-2.8177,-2.8182,-2.8188,-2.8308,0,0,-2.8206,-2.8208,0,0,0,0,0,0,0,0,-2.8074,-2.8083,-2.8146,-2.8144,-2.8141,-2.817,-2.8184,-2.8252,-2.8141,-2.814,-2.8131,-2.8126,-2.818,-2.8185,-2.8203,-2.831,-2.8312,-2.8206,-2.821,-2.8212,-2.8214,0,0,0,0,0,0,0,-2.807,-2.8081,-2.8194,-2.8147,-2.8144,-2.8123,-2.8127,-2.8197,-2.8183,-2.814,-2.8134,-2.814,-2.8178,-2.8198,-2.8204,-2.8313,-2.8206,-2.8211,-2.8215,-2.8217,-2.852,-2.8525,0,0,0,0,0,0,-2.807,-2.8078,-2.8193,-2.8196,-2.8096,-2.813,-2.8134,-2.8165,-2.8182,-2.818,-2.8144,-2.8136,-2.819,-2.8197,-2.8205,-2.8347,-2.8212,-2.8218,-2.8221,-2.8516,-2.8521,-2.8526,0,0,0,0,0,0,-2.8067,-2.8081,-2.8191,-2.8135,-2.8148,-2.8137,-2.8173,-2.8168,-2.8188,-2.8185,-2.8182,-2.8166,-2.8187,-2.8197,-2.8283,-2.8347,-2.822,-2.8226,-2.8511,-2.8518,-2.8524,-2.8632,0,0,0,0,0,0,-2.8063,-2.8081,-2.8126,-2.8137,-2.8151,-2.8269,-2.8177,-2.8172,-2.8198,-2.8189,-2.8205,-2.8204,-2.8184,-2.8275,-2.8289,-2.8353,-2.823,-2.8505,-2.8514,-2.8522,-2.8623,-2.8641,-2.8658,0,0,0,0,0,-2.8057,-2.8155,-2.8129,-2.8143,-2.8208,-2.8272,-2.828,-2.8255,-2.8204,-2.825,-2.8247,-2.8204,-2.8337,-2.8284,-2.8299,-2.8367,-2.8501,-2.8511,-2.8521,-2.8615,-2.8638,-2.8657,0,0,0,0,0,0,-2.8153,-2.8156,-2.8127,-2.8231,-2.8252,-2.8258,-2.8315,-2.828,-2.8317,-2.8306,-2.8273,-2.8278,-2.8371,-2.8377,-2.8317,-2.8483,-2.841,-2.8424,-2.8476,-2.8498,-2.8516,-2.8513,-2.8235,0,0,0,0,0,-2.8186,-2.8238,-2.8238,-2.833,-2.8341,-2.8327,-2.8354,-2.8332,-2.8353,-2.8362,-2.8366,-2.8388,-2.8434,-2.8466,-2.8509,-2.8622,-2.8625,-2.8675,-2.8693,-2.8708,-2.8721,-2.8781,-2.8804,-2.856,-2.856,-2.856,0,0,-2.8256,-2.8263,-2.8299,-2.8349,-2.8363,-2.8418,-2.8335,-2.8397,-2.8437,-2.8371,-2.8453,-2.8456,-2.8479,-2.8579,-2.8623,-2.8587,-2.8788,-2.8721,-2.8732,-2.8737,-2.8794,-2.8817,-2.8837,-2.8567,-2.8566,-2.8565,0,0,-2.841,-2.8421,-2.8499,-2.8514,-2.8535,-2.8525,-2.8543,-2.8554,-2.8554,-2.8635,-2.8587,-2.8634,-2.8715,-2.8733,-2.8753,-2.8913,-2.8875,-2.8928,-2.9021,-2.908,-2.9099,-2.9116,-2.9174,-2.9195,-2.894,-2.894,-2.8941,0,-2.8494,-2.8575,-2.8543,-2.8609,-2.8632,-2.8573,-2.8652,-2.8668,-2.8703,-2.8721,-2.8679,-2.878,-2.8791,-2.8894,-2.8933,-2.895,-2.8971,-2.8927,-2.9099,-2.9115,-2.9131,-2.9185,-2.9207,-2.8947,-2.8946,-2.8945,-2.8945,0,-2.8677,-2.8734,-2.8794,-2.8829,-2.8859,-2.893,-2.891,-2.8944,-2.8919,-2.8913,-2.8996,-2.9006,-2.905,-2.9073,-2.9049,-2.9173,-2.915,-2.9104,-2.9031,-2.9161,-2.9212,-2.9232,-2.8956,-2.8954,-2.8952,-2.895,0,0,-2.8897,-2.8911,-2.8934,-2.8949,-2.8967,-2.901,-2.9079,-2.9121,-2.9151,-2.9176,-2.9234,-2.9303,-2.926,-2.9283,-2.926,-2.9312,-2.9439,-2.926,-2.926,-2.9294,-2.9576,-2.9612,-2.9637,-2.9412,-2.9416,-2.9419,-2.9575,0,-2.9051,-2.9169,-2.9142,-2.9259,-2.9311,-2.9254,-2.9314,-2.9332,-2.9327,-2.9371,-2.9365,-2.9415,-2.9355,-2.9368,-2.9416,-2.9413,-2.9495,-2.9401,-2.9466,-2.9469,-2.9464,-2.9663,-2.9702,-2.9848,-2.9594,-2.9598,-2.96,0,-2.9248,-2.928,-2.9402,-2.9411,-2.9432,-2.9486,-2.9522,-2.9564,-2.9583,-2.9576,-2.96,-2.9567,-2.9635,-2.9559,-2.9653,-2.9589,-2.9613,-2.9616,-2.9621,-2.9628,-2.9544,-2.9677,-2.9894,-2.9917,-2.9631,-2.9629,-2.9626,0,-2.9397,-2.9471,-2.9553,-2.9567,-2.958,-2.9619,-2.9626,-2.9641,-2.9668,-2.9699,-2.9716,-2.9755,-2.9777,-2.9808,-2.9786,-2.9733,-2.9883,-2.9806,-2.988,-2.9881,-2.9916,-2.9915,-3.0143,-2.9929,-2.9929,-2.9929,-2.9928,0,-2.9574,-2.9651,-2.962,-2.9672,-2.9756,-2.9723,-2.9808,-2.9808,-2.9821,-2.9871,-2.9824,-2.9872,-2.984,-2.9885,-2.9868,-2.9948,-2.9958,-2.9955,-2.995,-2.996,-2.9961,-2.9977,-2.9967,-2.9934,-2.9933,-2.9932,-2.9931,0,-2.9757,-2.9739,-2.9825,-2.9829,-2.9832,-2.9894,-2.9898,-2.9945,-2.9935,-3.0,-3.0013,-2.9999,-3.0049,-3.003,-3.0084,-3.0072,-3.0175,-3.0156,-3.0169,-3.0165,-3.0241,-3.0235,-3.0489,-3.0521,-3.0286,-3.0288,-3.029,0,-2.9872,-2.993,-2.994,-2.9969,-2.998,-3.0028,-3.0055,-3.0025,-3.0055,-3.0079,-3.0124,-3.017,-3.0206,-3.0289,-3.0284,-3.0325,-3.0307,-3.0393,-3.0314,-3.0322,-3.031,-3.0308,-3.0314,-3.041,-3.0413,-3.0415,-3.0417,0,-3.0078,-3.0066,-3.0107,-3.0144,-3.0177,-3.0205,-3.0229,-3.0256,-3.0226,-3.0262,-3.0313,-3.0341,-3.0395,-3.0442,-3.0478,-3.0485,-3.0447,-3.0442,-3.0461,-3.0474,-3.048,-3.0479,-3.0215,-3.0437,-3.0435,-3.0433,-3.0432,-3.0432,-3.0232,-3.028,-3.0295,-3.0341,-3.0355,-3.0378,-3.0423,-3.0419,-3.046,-3.0502,-3.0481,-3.0541,-3.0556,-3.0601,-3.0613,-3.0659,-3.0625,-3.0654,-3.0661,-3.0669,-3.068,-3.0471,-3.0665,-3.0665,-3.0664,-3.0664,-3.0663,0,-3.0437,-3.0443,-3.0486,-3.052,-3.0557,-3.0515,-3.0539,-3.0573,-3.0625,-3.0643,-3.0678,-3.0737,-3.0781,-3.0779,-3.082,-3.0857,-3.0841,-3.0869,-3.0867,-3.087,-3.0707,-3.0686,-3.0882,-3.0882,-3.0882,-3.0882,-3.0882,-3.0882,-3.0549,-3.0629,-3.0618,-3.0705,-3.071,-3.0768,-3.0785,-3.0806,-3.082,-3.0887,-3.0923,-3.0921,-3.093,-3.0972,-3.1011,-3.1009,-3.1027,-3.1062,-3.1054,-3.0903,-3.0881,-3.086,-3.0841,-3.1066,-3.1066,-3.1213,-3.1215,-3.1216]},{"header":{"parameterUnit":"m.s-1","parameterCategory":1,"la1":30.2991,"la2":30.254,"lo1":-89.0895,"lo2":-89.0444,"dy":0.0017,"dx":0.0017,"nx":28,"ny":28,"refTime":"2025-03-02T09:00:00:Z","depth":0,"parameterNumber":3,"parameterNumberName":"V-component_of_WINDS"},"data":[0,0,0,0,0,0,0,0,0,0,0,0,0,0,0,0,0,0,0,0,0,0,0,0,0,0,0,0,0,0,0,0,0,0,0,0,0,0,0,0,0,0,0,0,0,0,0,0,0,0,0,0,0,0,0,0,0,0,-5.383,-5.3831,0,-5.3927,-5.3928,-5.3929,-5.3856,-5.3853,-5.385,-5.3847,-5.3942,-5.3947,-5.3953,0,0,0,0,0,0,0,0,0,0,0,0,0,-5.3575,-5.358,-5.383,-5.3831,-5.3832,-5.3927,-5.3928,-5.393,-5.3856,-5.3853,-5.3849,-5.3845,-5.394,-5.3947,-5.3953,0,0,0,0,0,0,0,0,0,0,0,0,0,-5.368,-5.3581,-5.3829,-5.3807,-5.3806,-5.3927,-5.3928,-5.393,-5.3857,-5.3852,-5.3848,-5.3843,-5.3938,-5.3946,-5.3954,-5.41,0,0,-5.3979,-5.3983,0,0,0,0,0,0,0,0,-5.3674,-5.3689,-5.3809,-5.3809,-5.3808,-5.3875,-5.3873,-5.3987,-5.3858,-5.3838,-5.3846,-5.3841,-5.3923,-5.3932,-5.3961,-5.4105,-5.4109,-5.398,-5.3985,-5.3989,-5.3991,0,0,0,0,0,0,0,-5.3667,-5.3685,-5.3868,-5.3811,-5.381,-5.379,-5.38,-5.3894,-5.3906,-5.3839,-5.3834,-5.3847,-5.3922,-5.3953,-5.3962,-5.411,-5.398,-5.3987,-5.3992,-5.3995,-5.4378,-5.4383,0,0,0,0,0,0,-5.3662,-5.3679,-5.3865,-5.3871,-5.3728,-5.3799,-5.381,-5.3858,-5.3905,-5.3907,-5.3851,-5.3843,-5.3941,-5.3953,-5.3966,-5.414,-5.3988,-5.3996,-5.4001,-5.4373,-5.4379,-5.4385,0,0,0,0,0,0,-5.3657,-5.368,-5.3861,-5.3774,-5.3795,-5.3808,-5.3863,-5.3862,-5.3894,-5.3914,-5.3915,-5.3881,-5.3938,-5.3954,-5.4067,-5.4142,-5.4,-5.4007,-5.4367,-5.4375,-5.4382,-5.449,0,0,0,0,0,0,-5.365,-5.3678,-5.3736,-5.3776,-5.38,-5.3963,-5.3868,-5.3868,-5.3909,-5.3899,-5.3942,-5.3945,-5.3935,-5.4056,-5.4076,-5.4151,-5.4014,-5.436,-5.437,-5.4379,-5.4479,-5.45,-5.4518,0,0,0,0,0,-5.3641,-5.3761,-5.3739,-5.3762,-5.3872,-5.3968,-5.3982,-5.397,-5.3915,-5.3972,-5.3984,-5.3943,-5.413,-5.4068,-5.409,-5.4169,-5.4355,-5.4367,-5.4379,-5.4471,-5.4496,-5.4517,0,0,0,0,0,0,-5.3728,-5.3766,-5.3742,-5.3878,-5.3921,-5.3955,-5.4027,-5.3997,-5.4055,-5.4044,-5.4025,-5.4035,-5.4155,-5.4172,-5.4102,-5.4312,-5.4234,-5.425,-5.4296,-5.432,-5.4339,-5.4332,-5.4021,0,0,0,0,0,-5.3763,-5.3839,-5.3868,-5.3985,-5.4008,-5.4014,-5.4055,-5.4042,-5.4085,-5.4102,-5.4122,-5.4164,-5.4231,-5.4277,-5.434,-5.4481,-5.4489,-5.4546,-5.4565,-5.4581,-5.4595,-5.467,-5.4696,-5.4423,-5.4423,-5.4423,0,0,-5.3836,-5.3867,-5.3916,-5.4003,-5.4035,-5.4112,-5.4029,-5.4115,-5.4172,-5.4114,-5.4223,-5.424,-5.4284,-5.4412,-5.4469,-5.4431,-5.4672,-5.4596,-5.4608,-5.4614,-5.4685,-5.4711,-5.4734,-5.4431,-5.443,-5.4428,0,0,-5.401,-5.4041,-5.4142,-5.4175,-5.4224,-5.4227,-5.4251,-5.429,-5.43,-5.4409,-5.4367,-5.4433,-5.4551,-5.4584,-5.4616,-5.4801,-5.4765,-5.4822,-5.4922,-5.4996,-5.5017,-5.5036,-5.5102,-5.5125,-5.4836,-5.4837,-5.4837,0,-5.4094,-5.4211,-5.4197,-5.4287,-5.4326,-5.4278,-5.4379,-5.4411,-5.4478,-5.4505,-5.4461,-5.4608,-5.4634,-5.4769,-5.4814,-5.4842,-5.4868,-5.4817,-5.5015,-5.5034,-5.5052,-5.5114,-5.5139,-5.4843,-5.4843,-5.4842,-5.4841,0,-5.4312,-5.4394,-5.447,-5.4537,-5.4584,-5.4679,-5.4678,-5.4727,-5.471,-5.4717,-5.4828,-5.4858,-5.4927,-5.4957,-5.4941,-5.5089,-5.5064,-5.5018,-5.4939,-5.5085,-5.5143,-5.5166,-5.4853,-5.485,-5.4848,-5.4847,0,0,-5.4544,-5.4602,-5.463,-5.466,-5.4709,-5.4771,-5.4862,-5.4931,-5.4974,-5.502,-5.5096,-5.5196,-5.5154,-5.5191,-5.5177,-5.5241,-5.5385,-5.5187,-5.5188,-5.5223,-5.555,-5.5584,-5.5612,-5.5361,-5.5366,-5.5369,-5.5546,0,-5.472,-5.4882,-5.4871,-5.5023,-5.5097,-5.5052,-5.5132,-5.517,-5.5179,-5.5241,-5.5249,-5.5321,-5.526,-5.5282,-5.5343,-5.5355,-5.545,-5.5342,-5.543,-5.5434,-5.5421,-5.5643,-5.568,-5.5846,-5.5569,-5.5573,-5.5575,0,-5.4947,-5.5004,-5.5163,-5.5201,-5.5232,-5.5304,-5.5365,-5.5426,-5.5468,-5.5469,-5.551,-5.5485,-5.5576,-5.5494,-5.5618,-5.5544,-5.5579,-5.559,-5.5596,-5.5604,-5.5514,-5.5657,-5.5898,-5.5923,-5.5611,-5.5608,-5.5606,0,-5.5101,-5.5216,-5.5326,-5.5353,-5.5399,-5.5451,-5.5473,-5.5509,-5.5551,-5.5604,-5.563,-5.5692,-5.5726,-5.5774,-5.5766,-5.5707,-5.5892,-5.581,-5.5894,-5.5895,-5.5936,-5.5934,-5.6186,-5.5958,-5.5958,-5.5957,-5.5957,0,-5.5298,-5.5398,-5.5396,-5.5464,-5.5573,-5.5558,-5.5666,-5.5682,-5.5715,-5.5783,-5.5747,-5.5812,-5.5797,-5.5861,-5.5855,-5.5958,-5.5973,-5.5976,-5.5973,-5.598,-5.598,-5.6003,-5.5991,-5.5964,-5.5962,-5.5961,-5.596,0,-5.5489,-5.5491,-5.5608,-5.5643,-5.5654,-5.5733,-5.5762,-5.5825,-5.583,-5.5917,-5.5937,-5.5945,-5.6018,-5.6014,-5.6097,-5.6092,-5.6219,-5.6203,-5.6206,-5.6203,-5.6288,-5.628,-5.6565,-5.6601,-5.6349,-5.6352,-5.6354,0,-5.5615,-5.5691,-5.5734,-5.5778,-5.5803,-5.5875,-5.5917,-5.5905,-5.595,-5.6003,-5.6059,-5.6129,-5.6185,-5.6303,-5.6315,-5.6378,-5.6362,-5.6458,-5.6372,-5.6375,-5.6364,-5.636,-5.6367,-5.6475,-5.6478,-5.648,-5.6482,0,-5.5839,-5.5837,-5.59,-5.5964,-5.6016,-5.6066,-5.6111,-5.6148,-5.6141,-5.6193,-5.6268,-5.6312,-5.6396,-5.6466,-5.6525,-5.6545,-5.6512,-5.6509,-5.6532,-5.654,-5.6539,-5.654,-5.6253,-5.6503,-5.6501,-5.6499,-5.6498,-5.6497,-5.6001,-5.6066,-5.6107,-5.6179,-5.6211,-5.6254,-5.6315,-5.6328,-5.6391,-5.6461,-5.6449,-5.6533,-5.657,-5.6647,-5.6672,-5.6737,-5.6702,-5.6736,-5.6744,-5.6753,-5.6762,-5.6528,-5.6747,-5.6746,-5.6746,-5.6745,-5.6745,0,-5.6224,-5.6248,-5.6314,-5.6379,-5.6435,-5.64,-5.6448,-5.6496,-5.6571,-5.661,-5.6665,-5.6751,-5.6818,-5.6835,-5.6899,-5.6947,-5.6933,-5.6964,-5.6961,-5.6966,-5.6789,-5.6763,-5.6974,-5.6974,-5.6974,-5.6974,-5.6974,-5.6974,-5.6346,-5.6454,-5.6456,-5.6579,-5.6601,-5.6685,-5.6715,-5.6754,-5.6784,-5.6883,-5.6939,-5.695,-5.6979,-5.7044,-5.7104,-5.7107,-5.7132,-5.7169,-5.7166,-5.7001,-5.6978,-5.6956,-5.6932,-5.7174,-5.7175,-5.7337,-5.7338,-5.7339]}]]